Вернуться в каталог

SL-6 DEB

LostHEO
NORAD 48258·DEBRIS·🇷🇺 Russia

Запущен Jun 16, 1977 с Plesetsk Cosmodrome

Loading…

Ближайшие Пролёты (ближайшие 24 часа)

TLE

УстаревшееSource: Space-Track

Эпоха: Oct 30, 2021, 02:29 UTC

1 48258U 77047U   21303.10358034 -.00000151  00000-0  00000-0 0  9993
2 48258  67.1461 229.1019 6378247 326.8372   5.8669  2.13679867216952

Отслеживайте SL-6 DEB в реальном времени с AllMySat

Download on the App Store